Вернуться в каталог

KUIPER-00181

АктивенСвязьLEO
NORAD 67137·PAYLOAD·🇺🇸 United States

Запущен Dec 15, 2025 с Cape Canaveral Space Force Station

Loading…

Ближайшие Пролёты (ближайшие 24 часа)

TLE

СвежийSource: CelesTrak SupGP

Эпоха: Sep 14, 2026, 14:02 UTC

1 67137C 25301E   26257.58518519  .00006109  00000+0  79991-3 0  2579
2 67137  51.9025 322.8468 0000305  69.6196  63.4286 14.79915673    18

Отслеживайте KUIPER-00181 в реальном времени с AllMySat

Download on the App Store